Flag for Brunei Past Weather in Bandar Seri Begawan, Brunei — Yesterday and Last 2 Weeks

Now
86 °F

Broken clouds.


Feels Like: 97 °F
Forecast: 81 / 91 °F
Wind: 5 mph from North

Location: Brunei Airport

Current Time: Jun 29, 2016 at 7:04:15 PM

Latest Report: Jun 29, 2016 at 6:30 PM


Visibility: N/A

Pressure: 29.83 "Hg

Humidity: 75%

Dew Point: 77 °F

Location of Bandar Seri BegawanLocation

Past Weather in Bandar Seri Begawan — Graph

°F

Bandar Seri Begawan Temperature Yesterday

Maximum temperature yesterday: 90 °F (at 1:30 PM)
Minimum temperature yesterday: 75 °F (at 2:30 AM)
Average temperature yesterday: 81 °F

High & Low Weather Summary for the Past Weeks

 TemperatureHumidityPressure
High91 °F (Jun 15, 1:30 PM)100% (Jun 17, 2:00 AM)29.92 "Hg (Jun 17, 2:00 AM)
Low72 °F (Jun 22, 8:00 AM)49% (Jun 26, 1:00 PM)29.71 "Hg (Jun 16, 4:00 PM)
Average81 °F84%29.82 "Hg
* Reported Jun 14 6:00 PM — Jun 29 6:00 PM, Bandar Seri Begawan, Weather by CustomWeather, © 2016

Note: Actual official high and low records may vary slightly from our data, if they occured in-between our weather recording intervals... More about our weather records

Advertising

Bandar Seri Begawan Weather History for the Previous 24 Hours

Scroll right to see more
 ConditionsComfort  
Time TempWeatherWind HumidityBarometerVisibility
6:00 PM
Wed, Jun 29
86 °FBroken clouds.6 mph79%29.83 "HgN/A
5:30 PM88 °FBroken clouds.6 mph75%29.80 "HgN/A
5:00 PM88 °FPartly sunny.8 mph70%29.80 "HgN/A
4:30 PM90 °FPartly sunny.8 mph63%29.80 "HgN/A
4:00 PM91 °FPartly sunny.8 mph49%29.80 "HgN/A
3:30 PM91 °FPartly sunny.7 mph59%29.80 "HgN/A
3:00 PM90 °FPartly sunny.7 mph59%29.80 "HgN/A
2:30 PM90 °FPartly sunny.5 mph55%29.80 "HgN/A
2:00 PM91 °FPartly sunny.5 mph52%29.80 "HgN/A
1:30 PM91 °FBroken clouds.6 mph52%29.83 "HgN/A
1:00 PM90 °FBroken clouds.7 mph63%29.83 "HgN/A
12:30 PM88 °FBroken clouds.10 mph66%29.86 "HgN/A
12:00 PM88 °FBroken clouds.6 mph66%29.86 "HgN/A
11:30 AM88 °FBroken clouds.7 mph66%29.89 "HgN/A
11:00 AM88 °FBroken clouds.7 mph66%29.89 "HgN/A
10:30 AM88 °FBroken clouds.6 mph75%29.89 "HgN/A
10:00 AM86 °FBroken clouds.5 mph75%29.89 "HgN/A
9:30 AM86 °FBroken clouds.2 mph79%29.89 "HgN/A
9:00 AM84 °FPartly sunny.2 mph84%29.89 "HgN/A
8:30 AM82 °FPartly sunny.5 mph89%29.89 "HgN/A
8:00 AM81 °FPartly sunny.3 mph94%29.89 "HgN/A
7:30 AM79 °FPartly sunny.2 mph100%29.89 "HgN/A
7:00 AM79 °FPartly sunny.1 mph94%29.89 "HgN/A
6:30 AM77 °FPartly sunny.1 mph100%29.89 "HgN/A
6:00 AM77 °FPassing clouds.1 mph100%29.86 "HgN/A
5:30 AM79 °FPassing clouds.1 mph94%29.86 "HgN/A
5:00 AM79 °FPassing clouds.1 mph94%29.86 "HgN/A
4:30 AM79 °FPassing clouds.1 mph100%29.86 "HgN/A
4:00 AM79 °FPassing clouds.2 mph100%29.86 "HgN/A
3:30 AM79 °FPassing clouds.1 mph94%29.86 "HgN/A
3:00 AM79 °FPassing clouds.1 mph94%29.86 "HgN/A
2:30 AM79 °FPassing clouds.1 mph94%29.86 "HgN/A
2:00 AM79 °FPassing clouds.1 mph100%29.86 "HgN/A
1:30 AM79 °FPassing clouds.1 mph94%29.86 "HgN/A
1:00 AM79 °FPassing clouds.1 mph94%29.86 "HgN/A
12:30 AM79 °FPassing clouds.2 mph94%29.89 "HgN/A
12:00 AM79 °FPassing clouds.2 mph94%29.89 "HgN/A
11:30 PM
Tue, Jun 28
81 °FPassing clouds.1 mph89%29.89 "HgN/A
11:00 PM81 °FPassing clouds.1 mph89%29.89 "HgN/A
10:30 PM81 °FPassing clouds.2 mph89%29.89 "HgN/A
10:00 PM81 °FPassing clouds.1 mph89%29.89 "HgN/A
9:30 PM82 °FPassing clouds.2 mph84%29.89 "HgN/A
9:00 PM82 °FPassing clouds.2 mph84%29.89 "HgN/A
8:30 PM82 °FPassing clouds.2 mph84%29.89 "HgN/A
8:00 PM82 °FPassing clouds.2 mph79%29.86 "HgN/A
7:30 PM82 °FPassing clouds.1 mph74%29.86 "HgN/A
7:00 PM82 °FPassing clouds.2 mph79%29.86 "HgN/A
Weather by CustomWeather, © 2016

See weather overviewHow to use our weather pages